{"data":{"norad_id":61629,"intl_designator":"2024-191J","name":"STARLINK-32403","alt_names":[],"object_type":"PAYLOAD","status":"ACTIVE","operator":null,"country":"US","launch_date":"2024-10-23","launch_site_code":"AFETR","launch_vehicle":null,"mission":null,"orbit_class":"UNKNOWN","rcs_meters":null,"size_class":null,"mass_kg":null,"dimensions":null,"purposes":["comms"],"wikipedia_slug":null,"has_3d_model":false,"image_url":null,"decayed_at":null,"tle_current":{"epoch":"2026-09-21T01:04:08.854752Z","epoch_age_seconds":144978,"freshness":"FRESH","line1":"1 61629U 24191J   26264.04454693  .00000747  00000+0  36684-4 0  9994","line2":"2 61629  43.0021 131.2177 0001847 257.7090 102.3555 15.27580303107416","mean_motion":15.27580303,"eccentricity":0.0001847,"inclination_deg":43.0021,"raan_deg":131.2177,"arg_perigee_deg":257.709,"mean_anomaly_deg":102.3555,"bstar":3.6684e-5,"rev_number":10741,"period_min":94.266730015568,"perigee_km":481.78092784444,"apogee_km":484.31544965316,"semimajor_km":6861.1851887488,"source":"CELESTRAK","updated_at":"2026-09-22T09:00:49.396225Z"}}}